CommID,deviceName,DataDateTime,GPSLatitude,GPSLongitude,Submerged,gpsQuality,BatteryVoltage,SST,IridiumLatitude,IridiumLongitude,IridiumRadiusKm,orgName,bPressTend,windDir,windSpeed,bPress,SurfaceSalinity,temperature7m,salinity7m,temperature15m,salinity15m
300234011882340,SFOS-MS-0011,10/12/2012 9:00:09 PM,64.863641,-147.905450,False,3,8.5,43.80,64.491500,-148.500390,84,School of Fisheries and Ocean Sciences,,,,,,,,,
300234011882340,SFOS-MS-0011,10/12/2012 8:30:09 PM,64.863707,-147.905339,False,3,8.5,43.55,64.524770,-147.526990,3,School of Fisheries and Ocean Sciences,,,,,,,,,
300234011882340,SFOS-MS-0011,10/12/2012 8:00:38 PM,64.863574,-147.905148,False,3,8.5,43.40,64.524770,-147.526990,2,School of Fisheries and Ocean Sciences,,,,,,,,,
300234011882340,SFOS-MS-0011,10/12/2012 7:30:10 PM,64.863582,-147.905284,False,3,8.5,43.35,64.514400,-147.484140,4,School of Fisheries and Ocean Sciences,,,,,,,,,
300234011882340,SFOS-MS-0011,10/12/2012 7:00:08 PM,64.863782,-147.905384,False,3,8.5,43.45,64.508260,-147.553880,2,School of Fisheries and Ocean Sciences,,,,,,,,,
300234011882340,SFOS-MS-0011,10/12/2012 6:30:08 PM,64.863835,-147.905489,False,3,8.5,43.60,65.125990,-142.421510,258,School of Fisheries and Ocean Sciences,,,,,,,,,
300234011882340,SFOS-MS-0011,10/12/2012 6:00:38 PM,64.863641,-147.905389,False,3,8.5,43.85,64.508260,-147.553880,2,School of Fisheries and Ocean Sciences,,,,,,,,,
300234011882340,SFOS-MS-0011,10/12/2012 5:30:15 PM,64.863891,-147.905706,False,3,8.5,44.20,64.514400,-147.484140,2,School of Fisheries and Ocean Sciences,,,,,,,,,
300234011882340,SFOS-MS-0011,10/12/2012 5:00:13 PM,64.863727,-147.905467,False,3,8.5,44.55,64.406510,-151.538750,202,School of Fisheries and Ocean Sciences,,,,,,,,,
300234011882340,SFOS-MS-0011,10/12/2012 4:30:09 PM,64.863702,-147.905495,False,3,8.5,44.90,64.514400,-147.484140,2,School of Fisheries and Ocean Sciences,,,,,,,,,
300234011882340,SFOS-MS-0011,10/12/2012 4:00:07 PM,64.863724,-147.905467,False,3,8.5,45.30,64.518600,-147.596770,3,School of Fisheries and Ocean Sciences,,,,,,,,,
300234011882340,SFOS-MS-0011,10/12/2012 3:30:06 PM,64.863663,-147.905523,False,3,8.5,45.75,64.508260,-147.553880,1,School of Fisheries and Ocean Sciences,,,,,,,,,
300234011882340,SFOS-MS-0011,10/12/2012 3:00:37 PM,64.863749,-147.905414,False,3,8.5,-5.00,64.524770,-147.526990,5,School of Fisheries and Ocean Sciences,,,,,,,,,
300234011882340,SFOS-MS-0011,10/12/2012 2:30:10 PM,64.863763,-147.905398,False,3,8.5,-4.60,64.524770,-147.526990,5,School of Fisheries and Ocean Sciences,,,,,,,,,
300234011882340,SFOS-MS-0011,10/12/2012 2:00:07 PM,64.863654,-147.905345,False,3,8.5,-4.25,64.514400,-147.484140,10,School of Fisheries and Ocean Sciences,,,,,,,,,
300234011882340,SFOS-MS-0011,10/12/2012 1:30:11 PM,64.863627,-147.905139,False,3,9.0,-3.85,64.535120,-147.569910,4,School of Fisheries and Ocean Sciences,,,,,,,,,
300234011882340,SFOS-MS-0011,10/12/2012 1:00:07 PM,64.863749,-147.905462,False,3,9.0,-3.50,64.499110,-147.553880,14,School of Fisheries and Ocean Sciences,,,,,,,,,
300234011882340,SFOS-MS-0011,10/12/2012 12:30:08 PM,64.863704,-147.905537,False,3,9.0,-3.10,64.508260,-147.553880,2,School of Fisheries and Ocean Sciences,,,,,,,,,
300234011882340,SFOS-MS-0011,10/12/2012 12:00:37 PM,64.863707,-147.905467,False,3,9.0,-2.60,64.499110,-147.553880,3,School of Fisheries and Ocean Sciences,,,,,,,,,
300234011882340,SFOS-MS-0011,10/12/2012 11:30:15 AM,64.863552,-147.905373,False,3,9.0,-2.00,64.524770,-147.526990,3,School of Fisheries and Ocean Sciences,,,,,,,,,
300234011882340,SFOS-MS-0011,10/12/2012 11:00:12 AM,64.863813,-147.905509,False,3,9.0,-1.35,64.524770,-147.526990,4,School of Fisheries and Ocean Sciences,,,,,,,,,
300234011882340,SFOS-MS-0011,10/12/2012 10:30:13 AM,64.863618,-147.905398,False,3,9.0,-0.55,64.518600,-147.596770,17,School of Fisheries and Ocean Sciences,,,,,,,,,
300234011882340,SFOS-MS-0011,10/12/2012 10:00:07 AM,64.863474,-147.905323,False,3,9.0,0.30,64.518600,-147.596770,3,School of Fisheries and Ocean Sciences,,,,,,,,,
300234011882340,SFOS-MS-0011,10/12/2012 9:30:15 AM,64.863721,-147.905556,False,3,9.0,1.15,64.518600,-147.596770,2,School of Fisheries and Ocean Sciences,,,,,,,,,
300234011882340,SFOS-MS-0011,10/12/2012 9:00:08 AM,64.863568,-147.905412,False,3,9.5,2.00,64.535120,-147.569910,3,School of Fisheries and Ocean Sciences,,,,,,,,,
300234011882340,SFOS-MS-0011,10/12/2012 8:30:06 AM,64.863782,-147.905356,False,3,9.5,2.85,64.524770,-147.526990,3,School of Fisheries and Ocean Sciences,,,,,,,,,
300234011882340,SFOS-MS-0011,10/12/2012 8:00:37 AM,64.863671,-147.905548,False,3,9.5,3.60,64.518600,-147.596770,2,School of Fisheries and Ocean Sciences,,,,,,,,,
300234011882340,SFOS-MS-0011,10/12/2012 7:30:08 AM,64.863660,-147.905375,False,3,9.5,4.05,64.508260,-147.553880,8,School of Fisheries and Ocean Sciences,,,,,,,,,
300234011882340,SFOS-MS-0011,10/12/2012 7:00:10 AM,64.863674,-147.905600,False,3,9.5,4.20,64.508260,-147.553880,8,School of Fisheries and Ocean Sciences,,,,,,,,,
300234011882340,SFOS-MS-0011,10/12/2012 6:30:11 AM,64.863677,-147.905381,False,3,9.5,4.50,64.535120,-147.569910,3,School of Fisheries and Ocean Sciences,,,,,,,,,
300234011882340,SFOS-MS-0011,10/12/2012 6:00:09 AM,64.863524,-147.905764,False,3,9.5,4.95,64.499110,-147.553880,5,School of Fisheries and Ocean Sciences,,,,,,,,,
300234011882340,SFOS-MS-0011,10/12/2012 5:34:58 AM,64.818013,-147.866392,False,3,7.5,-0.05,64.482600,-147.580700,9,School of Fisheries and Ocean Sciences,,,,,,,,,
300234011882340,SFOS-MS-0011,10/12/2012 3:30:05 AM,71.287014,-156.774975,False,3,9.5,8.30,71.168570,-156.498430,2,School of Fisheries and Ocean Sciences,,,,,,,,,
300234011882340,SFOS-MS-0011,10/12/2012 2:30:07 AM,71.327089,-156.680153,False,3,9.5,7.80,71.272950,-158.257210,93,School of Fisheries and Ocean Sciences,,,,,,,,,
300234011882340,SFOS-MS-0011,10/12/2012 1:30:05 AM,71.328605,-156.674475,False,3,7.5,-0.05,71.197950,-156.383850,4,School of Fisheries and Ocean Sciences,,,,,,,,,
300234011882340,SFOS-MS-0011,10/12/2012 1:00:08 AM,71.289189,-156.798262,False,3,10.0,10.85,71.176560,-156.560030,1,School of Fisheries and Ocean Sciences,,,,,,,,,
300234011882340,SFOS-MS-0011,10/12/2012 12:30:06 AM,71.290602,-156.789164,False,3,10.0,13.80,71.176560,-156.560030,1,School of Fisheries and Ocean Sciences,,,,,,,,,
300234011882340,SFOS-MS-0011,10/11/2012 10:00:12 PM,71.328558,-156.673125,False,3,10.0,20.10,71.216660,-156.357180,4,School of Fisheries and Ocean Sciences,,,,,,,,,
300234011882340,SFOS-MS-0011,10/11/2012 9:30:14 PM,71.328497,-156.673150,False,3,10.0,21.90,71.216660,-156.357180,5,School of Fisheries and Ocean Sciences,,,,,,,,,
300234011882340,SFOS-MS-0011,10/11/2012 9:00:10 PM,71.328500,-156.673634,False,3,10.5,21.85,71.216660,-156.357180,6,School of Fisheries and Ocean Sciences,,,,,,,,,
300234011882340,SFOS-MS-0011,10/11/2012 8:30:11 PM,71.328522,-156.673689,False,3,10.5,21.75,71.206010,-156.445550,3,School of Fisheries and Ocean Sciences,,,,,,,,,
300234011882340,SFOS-MS-0011,10/11/2012 8:00:37 PM,71.328536,-156.673934,False,3,10.5,21.80,71.206010,-156.445550,4,School of Fisheries and Ocean Sciences,,,,,,,,,
300234011882340,SFOS-MS-0011,10/11/2012 7:30:29 PM,71.328514,-156.672967,False,3,10.5,21.85,71.206010,-156.445550,5,School of Fisheries and Ocean Sciences,,,,,,,,,
300234011882340,SFOS-MS-0011,10/11/2012 7:00:12 PM,71.328516,-156.673203,False,3,10.5,22.20,71.381090,-152.189380,173,School of Fisheries and Ocean Sciences,,,,,,,,,
300234011882340,SFOS-MS-0011,10/11/2012 6:30:37 PM,71.328375,-156.673639,False,3,10.5,21.95,71.206010,-156.445550,4,School of Fisheries and Ocean Sciences,,,,,,,,,
300234011882340,SFOS-MS-0011,10/11/2012 6:00:10 PM,71.328536,-156.673550,False,3,10.5,21.75,71.206010,-156.445550,5,School of Fisheries and Ocean Sciences,,,,,,,,,
300234011882340,SFOS-MS-0011,10/11/2012 5:30:12 PM,71.328541,-156.673587,False,3,10.5,21.80,71.206010,-156.445550,4,School of Fisheries and Ocean Sciences,,,,,,,,,
300234011882340,SFOS-MS-0011,10/11/2012 5:00:08 PM,71.328608,-156.673734,False,3,10.0,22.35,71.187290,-156.472030,2,School of Fisheries and Ocean Sciences,,,,,,,,,
300234011882340,SFOS-MS-0011,10/11/2012 4:30:28 PM,71.328255,-156.673153,False,3,10.5,20.25,71.187290,-156.472030,2,School of Fisheries and Ocean Sciences,,,,,,,,,
300234011882340,SFOS-MS-0011,10/11/2012 4:00:18 PM,71.328347,-156.673925,False,3,10.5,20.25,71.187290,-156.472030,4,School of Fisheries and Ocean Sciences,,,,,,,,,
300234011882340,SFOS-MS-0011,10/11/2012 3:30:14 PM,71.328516,-156.673775,False,3,10.5,20.05,71.208540,-156.295500,6,School of Fisheries and Ocean Sciences,,,,,,,,,
300234011882340,SFOS-MS-0011,10/11/2012 3:00:17 PM,71.328461,-156.673870,False,3,10.5,20.00,71.206010,-156.445550,5,School of Fisheries and Ocean Sciences,,,,,,,,,
300234011882340,SFOS-MS-0011,10/11/2012 2:30:38 PM,71.328516,-156.674109,False,3,10.5,20.00,71.187290,-156.472030,3,School of Fisheries and Ocean Sciences,,,,,,,,,
300234011882340,SFOS-MS-0011,10/11/2012 2:00:11 PM,71.328536,-156.674248,False,3,10.5,19.95,71.206010,-156.445550,3,School of Fisheries and Ocean Sciences,,,,,,,,,
300234011882340,SFOS-MS-0011,10/11/2012 1:30:11 PM,71.328547,-156.674028,False,3,10.5,19.80,71.145520,-161.592730,216,School of Fisheries and Ocean Sciences,,,,,,,,,
300234011882340,SFOS-MS-0011,10/11/2012 1:00:37 PM,71.328536,-156.673931,False,3,10.5,19.80,71.179240,-156.410430,5,School of Fisheries and Ocean Sciences,,,,,,,,,
300234011882340,SFOS-MS-0011,10/11/2012 12:30:11 PM,71.328508,-156.674042,False,3,10.5,19.85,71.179240,-156.410430,5,School of Fisheries and Ocean Sciences,,,,,,,,,
300234011882340,SFOS-MS-0011,10/11/2012 12:00:37 PM,71.328550,-156.674131,False,3,10.5,19.90,71.187290,-156.472030,9,School of Fisheries and Ocean Sciences,,,,,,,,,
300234011882340,SFOS-MS-0011,10/11/2012 11:30:13 AM,71.328691,-156.674373,False,3,10.5,20.00,71.179240,-156.410430,2,School of Fisheries and Ocean Sciences,,,,,,,,,
300234011882340,SFOS-MS-0011,10/11/2012 11:00:10 AM,71.328502,-156.674067,False,3,10.5,20.05,71.206010,-156.445550,8,School of Fisheries and Ocean Sciences,,,,,,,,,
300234011882340,SFOS-MS-0011,10/11/2012 10:30:13 AM,71.328575,-156.673959,False,3,10.5,20.15,71.216660,-156.357180,23,School of Fisheries and Ocean Sciences,,,,,,,,,
300234011882340,SFOS-MS-0011,10/11/2012 10:00:18 AM,71.328705,-156.673537,False,3,10.5,20.25,71.208540,-156.295500,19,School of Fisheries and Ocean Sciences,,,,,,,,,
300234011882340,SFOS-MS-0011,10/11/2012 9:30:12 AM,71.328389,-156.673334,False,3,10.5,20.25,71.216660,-156.357180,8,School of Fisheries and Ocean Sciences,,,,,,,,,
300234011882340,SFOS-MS-0011,10/11/2012 9:00:15 AM,71.328536,-156.673517,False,3,10.5,20.20,71.216660,-156.357180,7,School of Fisheries and Ocean Sciences,,,,,,,,,
300234011882340,SFOS-MS-0011,10/11/2012 8:30:13 AM,71.328522,-156.673573,False,3,10.5,20.25,71.187290,-156.472030,3,School of Fisheries and Ocean Sciences,,,,,,,,,
300234011882340,SFOS-MS-0011,10/11/2012 8:00:37 AM,71.328491,-156.673925,False,3,10.5,20.35,71.224740,-156.418960,6,School of Fisheries and Ocean Sciences,,,,,,,,,
300234011882340,SFOS-MS-0011,10/11/2012 7:30:27 AM,71.328616,-156.672889,False,3,10.5,20.45,71.206010,-156.445550,5,School of Fisheries and Ocean Sciences,,,,,,,,,
300234011882340,SFOS-MS-0011,10/11/2012 7:00:11 AM,71.328552,-156.673812,False,3,10.5,20.50,71.206010,-156.445550,5,School of Fisheries and Ocean Sciences,,,,,,,,,
300234011882340,SFOS-MS-0011,10/11/2012 6:30:19 AM,71.328511,-156.674059,False,3,10.5,20.55,71.206010,-156.445550,4,School of Fisheries and Ocean Sciences,,,,,,,,,
300234011882340,SFOS-MS-0011,10/11/2012 6:00:13 AM,71.328494,-156.673656,False,3,10.5,20.60,71.206010,-156.445550,4,School of Fisheries and Ocean Sciences,,,,,,,,,
300234011882340,SFOS-MS-0011,10/11/2012 5:30:37 AM,71.328566,-156.673603,False,3,10.5,20.60,71.224740,-156.418960,16,School of Fisheries and Ocean Sciences,,,,,,,,,
300234011882340,SFOS-MS-0011,10/11/2012 5:00:21 AM,71.328652,-156.673439,False,3,10.5,20.60,71.544720,-165.527820,354,School of Fisheries and Ocean Sciences,,,,,,,,,
300234011882340,SFOS-MS-0011,10/11/2012 4:30:11 AM,71.328580,-156.673664,False,3,10.5,20.65,71.169420,-155.438920,77,School of Fisheries and Ocean Sciences,,,,,,,,,
300234011882340,SFOS-MS-0011,10/11/2012 4:00:37 AM,71.328497,-156.673767,False,3,10.5,20.75,71.187290,-156.472030,2,School of Fisheries and Ocean Sciences,,,,,,,,,
300234011882340,SFOS-MS-0011,10/11/2012 3:30:16 AM,71.328569,-156.673953,False,3,10.5,20.85,71.187290,-156.472030,2,School of Fisheries and Ocean Sciences,,,,,,,,,
300234011882340,SFOS-MS-0011,10/11/2012 3:00:17 AM,71.328564,-156.674095,False,3,10.5,20.85,71.216660,-156.357180,7,School of Fisheries and Ocean Sciences,,,,,,,,,
300234011882340,SFOS-MS-0011,10/11/2012 2:30:37 AM,71.328508,-156.674134,False,3,10.5,20.95,71.206010,-156.445550,2,School of Fisheries and Ocean Sciences,,,,,,,,,
300234011882340,SFOS-MS-0011,10/11/2012 2:00:11 AM,71.328505,-156.673606,False,3,10.5,21.05,71.197950,-156.383850,3,School of Fisheries and Ocean Sciences,,,,,,,,,
300234011882340,SFOS-MS-0011,10/11/2012 1:30:13 AM,71.328441,-156.673364,False,3,10.5,21.00,71.206010,-156.445550,3,School of Fisheries and Ocean Sciences,,,,,,,,,
300234011882340,SFOS-MS-0011,10/11/2012 1:00:38 AM,71.328547,-156.674134,False,3,10.5,20.70,71.197950,-156.383850,4,School of Fisheries and Ocean Sciences,,,,,,,,,
300234011882340,SFOS-MS-0011,10/11/2012 12:30:24 AM,71.328555,-156.673117,False,3,10.5,21.25,71.307980,-159.337810,135,School of Fisheries and Ocean Sciences,,,,,,,,,
300234011882340,SFOS-MS-0011,10/11/2012 12:00:30 AM,71.328536,-156.674187,False,3,10.5,21.15,71.161660,-153.812900,165,School of Fisheries and Ocean Sciences,,,,,,,,,
300234011882340,SFOS-MS-0011,10/10/2012 11:30:41 PM,71.328652,-156.672620,False,3,10.5,21.10,71.206010,-156.445550,3,School of Fisheries and Ocean Sciences,,,,,,,,,
300234011882340,SFOS-MS-0011,10/10/2012 11:00:30 PM,71.328622,-156.672717,False,3,10.5,20.95,71.206010,-156.445550,3,School of Fisheries and Ocean Sciences,,,,,,,,,
300234011882340,SFOS-MS-0011,10/10/2012 10:30:16 PM,71.328608,-156.674334,False,3,10.5,20.85,71.236880,-157.311900,30,School of Fisheries and Ocean Sciences,,,,,,,,,
300234011882340,SFOS-MS-0011,10/10/2012 10:00:15 PM,71.328464,-156.673245,False,3,10.5,20.70,71.105230,-162.308070,224,School of Fisheries and Ocean Sciences,,,,,,,,,
300234011882340,SFOS-MS-0011,10/10/2012 9:30:17 PM,71.328597,-156.673403,False,3,10.5,20.55,71.145520,-161.592730,220,School of Fisheries and Ocean Sciences,,,,,,,,,
300234011882340,SFOS-MS-0011,10/10/2012 9:00:38 PM,71.328577,-156.673920,False,3,10.5,20.40,71.197950,-156.383850,4,School of Fisheries and Ocean Sciences,,,,,,,,,
300234011882340,SFOS-MS-0011,10/10/2012 8:30:21 PM,71.328419,-156.673689,False,3,10.5,20.05,71.197950,-156.383850,4,School of Fisheries and Ocean Sciences,,,,,,,,,
300234011882340,SFOS-MS-0011,10/10/2012 8:00:12 PM,71.328497,-156.673456,False,3,10.5,19.30,71.206010,-156.445550,4,School of Fisheries and Ocean Sciences,,,,,,,,,
300234011882340,SFOS-MS-0011,10/10/2012 7:30:23 PM,71.328469,-156.673900,False,3,10.5,20.80,71.238490,-155.567780,100,School of Fisheries and Ocean Sciences,,,,,,,,,
300234011882340,SFOS-MS-0011,10/10/2012 7:00:10 PM,71.328491,-156.673492,False,3,10.5,20.60,71.206010,-156.445550,5,School of Fisheries and Ocean Sciences,,,,,,,,,
300234011882340,SFOS-MS-0011,10/10/2012 6:30:37 PM,71.328502,-156.673612,False,3,10.5,20.35,71.187290,-156.472030,2,School of Fisheries and Ocean Sciences,,,,,,,,,
300234011882340,SFOS-MS-0011,10/10/2012 6:00:37 PM,71.328594,-156.673384,False,3,10.5,20.15,71.206010,-156.445550,3,School of Fisheries and Ocean Sciences,,,,,,,,,
300234011882340,SFOS-MS-0011,10/10/2012 5:30:14 PM,71.328594,-156.674195,False,3,11.0,20.10,71.206010,-156.445550,5,School of Fisheries and Ocean Sciences,,,,,,,,,
300234011882340,SFOS-MS-0011,10/10/2012 5:00:09 PM,71.328483,-156.674112,False,3,11.0,20.35,71.206010,-156.445550,5,School of Fisheries and Ocean Sciences,,,,,,,,,
300234011882340,SFOS-MS-0011,10/10/2012 4:30:25 PM,71.328133,-156.672950,False,3,11.0,20.25,71.224740,-156.418960,8,School of Fisheries and Ocean Sciences,,,,,,,,,
300234011882340,SFOS-MS-0011,10/10/2012 4:00:37 PM,71.328614,-156.673925,False,3,11.0,20.10,71.206010,-156.445550,8,School of Fisheries and Ocean Sciences,,,,,,,,,
300234011882340,SFOS-MS-0011,10/10/2012 3:30:16 PM,71.328355,-156.673625,False,3,11.0,20.15,71.187290,-156.472030,2,School of Fisheries and Ocean Sciences,,,,,,,,,
300234011882340,SFOS-MS-0011,10/10/2012 3:00:37 PM,71.328541,-156.674017,False,3,11.0,20.15,71.179240,-156.410430,3,School of Fisheries and Ocean Sciences,,,,,,,,,
300234011882340,SFOS-MS-0011,10/10/2012 2:30:30 PM,71.329802,-156.670053,False,3,11.0,20.20,71.179240,-156.410430,3,School of Fisheries and Ocean Sciences,,,,,,,,,
300234011882340,SFOS-MS-0011,10/10/2012 2:00:11 PM,71.328391,-156.673934,False,3,11.0,20.20,71.224740,-156.418960,9,School of Fisheries and Ocean Sciences,,,,,,,,,
300234011882340,SFOS-MS-0011,10/10/2012 1:30:14 PM,71.328527,-156.674075,False,3,11.0,20.15,71.197950,-156.383850,3,School of Fisheries and Ocean Sciences,,,,,,,,,
300234011882340,SFOS-MS-0011,10/10/2012 1:01:07 PM,71.328441,-156.673978,False,3,11.0,20.15,71.216660,-156.357180,6,School of Fisheries and Ocean Sciences,,,,,,,,,
300234011882340,SFOS-MS-0011,10/10/2012 12:30:15 PM,71.328569,-156.673853,False,3,11.0,20.25,71.179240,-156.410430,4,School of Fisheries and Ocean Sciences,,,,,,,,,
300234011882340,SFOS-MS-0011,10/10/2012 12:00:13 PM,71.328600,-156.674498,False,3,11.0,20.30,71.206010,-156.445550,10,School of Fisheries and Ocean Sciences,,,,,,,,,
300234011882340,SFOS-MS-0011,10/10/2012 11:30:15 AM,71.328508,-156.674267,False,3,11.0,20.30,71.545300,-163.585180,284,School of Fisheries and Ocean Sciences,,,,,,,,,
300234011882340,SFOS-MS-0011,10/10/2012 11:00:11 AM,71.328497,-156.674020,False,3,11.0,20.35,71.197950,-156.383850,5,School of Fisheries and Ocean Sciences,,,,,,,,,
300234011882340,SFOS-MS-0011,10/10/2012 10:30:16 AM,71.327875,-156.672220,False,3,11.0,20.35,71.318510,-160.166630,237,School of Fisheries and Ocean Sciences,,,,,,,,,
300234011882340,SFOS-MS-0011,10/10/2012 10:00:37 AM,71.328400,-156.673567,False,3,11.0,20.35,71.187290,-156.472030,8,School of Fisheries and Ocean Sciences,,,,,,,,,
300234011882340,SFOS-MS-0011,10/10/2012 9:30:19 AM,71.328541,-156.673837,False,3,11.0,20.40,71.187290,-156.472030,11,School of Fisheries and Ocean Sciences,,,,,,,,,
300234011882340,SFOS-MS-0011,10/10/2012 9:00:12 AM,71.328527,-156.673639,False,3,11.0,20.35,71.187290,-156.472030,2,School of Fisheries and Ocean Sciences,,,,,,,,,
300234011882340,SFOS-MS-0011,10/10/2012 8:30:11 AM,71.328547,-156.673706,False,3,11.0,20.35,71.179240,-156.410430,5,School of Fisheries and Ocean Sciences,,,,,,,,,
300234011882340,SFOS-MS-0011,10/10/2012 8:00:10 AM,71.328600,-156.673753,False,3,11.0,20.40,71.187290,-156.472030,2,School of Fisheries and Ocean Sciences,,,,,,,,,
300234011882340,SFOS-MS-0011,10/10/2012 7:30:38 AM,71.328455,-156.673762,False,3,11.0,20.45,71.179240,-156.410430,3,School of Fisheries and Ocean Sciences,,,,,,,,,
300234011882340,SFOS-MS-0011,10/10/2012 7:00:11 AM,71.328525,-156.673873,False,3,11.0,20.40,71.179240,-156.410430,3,School of Fisheries and Ocean Sciences,,,,,,,,,
300234011882340,SFOS-MS-0011,10/10/2012 6:30:11 AM,71.328569,-156.674100,False,3,11.0,20.45,71.206010,-156.445550,14,School of Fisheries and Ocean Sciences,,,,,,,,,
300234011882340,SFOS-MS-0011,10/10/2012 6:00:11 AM,71.328500,-156.674084,False,3,11.0,20.45,71.206010,-156.445550,3,School of Fisheries and Ocean Sciences,,,,,,,,,
300234011882340,SFOS-MS-0011,10/10/2012 5:30:38 AM,71.328541,-156.674078,False,3,11.0,20.45,71.189850,-156.322260,5,School of Fisheries and Ocean Sciences,,,,,,,,,
300234011882340,SFOS-MS-0011,10/10/2012 5:00:17 AM,71.328541,-156.673959,False,3,11.0,20.50,71.206010,-156.445550,2,School of Fisheries and Ocean Sciences,,,,,,,,,
300234011882340,SFOS-MS-0011,10/10/2012 4:30:28 AM,71.328566,-156.674200,False,3,11.0,20.50,71.216660,-156.357180,5,School of Fisheries and Ocean Sciences,,,,,,,,,
300234011882340,SFOS-MS-0011,10/10/2012 4:00:37 AM,71.328508,-156.674003,False,3,11.0,20.50,71.206010,-156.445550,3,School of Fisheries and Ocean Sciences,,,,,,,,,
300234011882340,SFOS-MS-0011,10/10/2012 3:30:12 AM,71.328625,-156.674687,False,3,11.0,20.50,71.187290,-156.472030,3,School of Fisheries and Ocean Sciences,,,,,,,,,
300234011882340,SFOS-MS-0011,10/10/2012 3:00:15 AM,71.328433,-156.672917,False,3,11.0,20.55,71.197950,-156.383850,6,School of Fisheries and Ocean Sciences,,,,,,,,,
300234011882340,SFOS-MS-0011,10/10/2012 2:30:11 AM,71.328497,-156.673778,False,3,11.0,20.55,71.230010,-157.311900,100,School of Fisheries and Ocean Sciences,,,,,,,,,
300234011882340,SFOS-MS-0011,10/10/2012 2:00:09 AM,71.328439,-156.673462,False,3,11.0,20.55,71.189850,-156.322260,4,School of Fisheries and Ocean Sciences,,,,,,,,,
300234011882340,SFOS-MS-0011,10/10/2012 1:30:10 AM,71.328472,-156.673798,False,3,11.0,20.00,71.187290,-156.472030,1,School of Fisheries and Ocean Sciences,,,,,,,,,
300234011882340,SFOS-MS-0011,10/10/2012 1:00:14 AM,71.328466,-156.674017,False,3,11.0,19.15,71.206010,-156.445550,4,School of Fisheries and Ocean Sciences,,,,,,,,,
300234011882340,SFOS-MS-0011,10/10/2012 12:30:26 AM,71.328389,-156.673367,False,3,11.0,18.10,71.206010,-156.445550,5,School of Fisheries and Ocean Sciences,,,,,,,,,
300234011882340,SFOS-MS-0011,10/10/2012 12:00:04 AM,71.328472,-156.673614,False,3,7.5,-0.05,71.197950,-156.383850,2,School of Fisheries and Ocean Sciences,,,,,,,,,
300234011882340,SFOS-MS-0011,10/9/2012 10:00:29 PM,71.328341,-156.673784,False,3,11.0,23.55,71.216660,-156.357180,6,School of Fisheries and Ocean Sciences,,,,,,,,,
300234011882340,SFOS-MS-0011,10/9/2012 9:30:05 PM,71.328575,-156.673942,False,3,11.0,24.70,71.303200,-153.321590,155,School of Fisheries and Ocean Sciences,,,,,,,,,
300234011882340,SFOS-MS-0011,10/9/2012 9:00:08 PM,71.290766,-156.789067,False,3,11.0,24.45,71.176560,-156.560030,3,School of Fisheries and Ocean Sciences,,,,,,,,,
300234011882340,SFOS-MS-0011,10/9/2012 8:30:08 PM,71.290758,-156.788667,False,3,11.0,31.55,71.187290,-156.472030,8,School of Fisheries and Ocean Sciences,,,,,,,,,
300234011882340,SFOS-MS-0011,10/9/2012 8:00:10 PM,71.328177,-156.672928,False,3,11.0,39.80,71.208540,-156.295500,3,School of Fisheries and Ocean Sciences,,,,,,,,,
300234011882340,SFOS-MS-0011,10/9/2012 7:30:08 PM,71.328105,-156.672859,False,3,11.0,38.60,71.216660,-156.357180,5,School of Fisheries and Ocean Sciences,,,,,,,,,
300234011882340,SFOS-MS-0011,10/9/2012 7:00:07 PM,71.328116,-156.672862,False,3,11.0,34.90,71.187290,-156.472030,2,School of Fisheries and Ocean Sciences,,,,,,,,,
300234011882340,SFOS-MS-0011,10/9/2012 2:30:08 AM,71.341700,-156.630387,True,3,11.0,1.60,71.151540,-154.169560,106,School of Fisheries and Ocean Sciences,,,,,,,,,
300234011882340,SFOS-MS-0011,10/9/2012 2:00:08 AM,71.341814,-156.631545,True,3,11.0,3.05,71.206010,-156.445550,2,School of Fisheries and Ocean Sciences,,,,,,,,,
300234011882340,SFOS-MS-0011,10/9/2012 1:30:08 AM,71.340511,-156.652150,True,3,11.0,3.45,71.216660,-156.357180,3,School of Fisheries and Ocean Sciences,,,,,,,,,
300234011882340,SFOS-MS-0011,10/9/2012 1:00:37 AM,71.340114,-156.670206,True,3,11.0,3.65,71.206010,-156.445550,2,School of Fisheries and Ocean Sciences,,,,,,,,,
300234011882340,SFOS-MS-0011,10/9/2012 12:30:37 AM,71.339944,-156.687500,True,3,11.0,3.85,71.187290,-156.472030,3,School of Fisheries and Ocean Sciences,,,,,,,,,
300234011882340,SFOS-MS-0011,10/9/2012 12:00:17 AM,71.339536,-156.704359,True,3,11.0,4.00,71.403500,-148.530100,320,School of Fisheries and Ocean Sciences,,,,,,,,,